SL-12 DEB

Satellite information

Favourite Embed

Satellite Type and Status

DEBRISIN ORBIT

Key statistics

Satellite SL-12 DEB at a glance.

Uptime

6408

Days in orbit

Revolutions

≈ 4.4

Per day

Orbit

HEO

HEO

Inclination

65.2

Latest

Satellite identification and parameters

Extended collection of information and parameters for SL-12 DEB.

Object identification

Identified? True

Debris? True

Object name: SL-12 DEB

International designator: 2007-052N

Object number (NORAD): 41681

Object ID (CCSDS): 41681

Country: COMMONWEALTH OF INDEPENDENT STATES (CIS)

Current information (Y/N): Y

RCS size: MEDIUM

Orbital parameters

Period: 328.168 minutes

Inclination: 65.244 deg

SMA: 15760.063 km

Apoapsis: 18289.563 km

Periapsis: 474.293 km

RAAN: 337.9685 deg

Eccentricy: 0.565203

Argument of periapsis: 218.5959 deg

Mean anomaly: 83.0306 deg

Mean motion: 4.38799202 rev/day

Mean motion (dot): 0.00000268 rev/day2

B* drag term: 0.00064943 1/REarth

Two-line elements (TLE)

Creation date: May 9, 2025, 5:15 p.m.

Reference frame: TEME

Reference center: EARTH

Epoch: May 8, 2025, 8:10 p.m. UTC

TLE line 0: 0 SL-12 DEB

TLE line 1: 1 41681U 07052N 25128.84066916 .00000268 00000-0 64943-3 0 9997

TLE line 2: 2 41681 65.2440 337.9685 5652030 218.5959 83.0306 4.38799202171197

Live tracking on map

Real-time ground track for satellite SL-12 DEB.

In-orbit conjunctions

A list of the most updated potential collisions computed for object SL-12 DEB.

Target Orbit TCA Probability of collision Miss distance Type
CZ-3B R/B MEO 2025-04-02 13:59:03 TBA 2486.0 (m) ROCKET BODY

Associated space launch

GLONASS navigation satellites

SL-12 DEB was lifted into orbit during the mission ‘Proton | Uragan-M 9 to 11’, on board a Proton space rocket.

The launch took place on Oct. 26, 2007, 7:35 a.m. from 81/24 (81P).

For more information about the launch, click the button.

Launch to space Proton | Uragan-M 9 to 11
Proton | Uragan-M 9 to 11

Agency: N/A

Status: Launch Successful

Launch date: Oct. 26, 2007, 7:35 a.m. UTC

Rocket: Proton

Launch pad: 81/24 (81P)

Location: Baikonur Cosmodrome, Republic of Kazakhstan

...

Latest news about this satellite

There are no fresh news available about this satellite. Check back as we update our databases every day.


Newsletter sign-up

Weekly statistics, charts and insights to help you stay on top of the space industry.